Tracking 19293 objects as of 20-Nov-2018
HD Live streaming from Space Station
objects crossing your sky now

COSMOS 532

Track COSMOS 532 now!
10-day predictions
COSMOS 532 is classified as:


NORAD ID: 6267
Int'l Code: 1972-087E
Perigee: 1,307.0 km
Apogee: 1,473.8 km
Inclination: 74.0 °
Period: 113.4 minutes
Semi major axis: 7761 km
RCS: 0.7139 m2 (medium)
Launch date: November 1, 1972
Source: Commonwealth of Independent States (former USSR) (CIS)
Launch site: PLESETSK MISSILE AND SPACE COMPLEX (PKMTR)
aabbcc
Your satellite tracking list
Your tracking list is empty




NASA's NSSDC Master Catalog

Two Line Element Set (TLE):
1  6267U 72087E   18324.40966949 -.00000011  00000-0  27151-4 0  9993
2  6267  74.0338 308.4502 0107438 143.4365   8.5076 12.69683484134622
Source of the keplerian elements: AFSPC